TimeCDT,TemperatureF,Dew PointF,Humidity,Sea Level PressureIn,VisibilityMPH,Wind Direction,Wind SpeedMPH,Gust SpeedMPH,PrecipitationIn,Events,Conditions,WindDirDegrees,DateUTC
12:54 AM,57.9,42.1,56,29.94,10.0,South,8.1,-,N/A,,Clear,170,2013-05-14 05:54:00
1:54 AM,59.0,44.1,58,29.91,10.0,South,8.1,-,N/A,,Clear,190,2013-05-14 06:54:00
2:54 AM,57.0,46.0,67,29.90,10.0,SSW,9.2,-,N/A,,Clear,200,2013-05-14 07:54:00
3:54 AM,57.0,46.9,69,29.88,10.0,SSW,10.4,-,N/A,,Clear,200,2013-05-14 08:54:00
4:54 AM,57.0,48.0,72,29.86,10.0,South,9.2,-,N/A,,Clear,190,2013-05-14 09:54:00
5:54 AM,57.0,48.0,72,29.86,10.0,SSW,9.2,-,N/A,,Clear,200,2013-05-14 10:54:00
6:54 AM,59.0,50.0,72,29.86,10.0,South,11.5,-,N/A,,Clear,190,2013-05-14 11:54:00
7:54 AM,64.9,53.1,65,29.85,10.0,SSW,10.4,-,N/A,,Clear,210,2013-05-14 12:54:00
8:54 AM,70.0,54.0,57,29.84,10.0,SW,12.7,-,N/A,,Clear,230,2013-05-14 13:54:00
9:54 AM,73.9,55.0,52,29.83,10.0,WSW,12.7,-,N/A,,Clear,240,2013-05-14 14:54:00
10:54 AM,78.1,57.0,48,29.83,10.0,WSW,12.7,-,N/A,,Clear,240,2013-05-14 15:54:00
11:54 AM,81.0,59.0,47,29.84,10.0,SW,8.1,-,N/A,,Clear,230,2013-05-14 16:54:00
12:54 PM,84.9,60.1,43,29.82,10.0,SW,10.4,-,N/A,,Clear,230,2013-05-14 17:54:00
1:54 PM,86.0,61.0,43,29.80,10.0,SSW,13.8,18.4,N/A,,Clear,210,2013-05-14 18:54:00
2:54 PM,87.1,59.0,39,29.79,10.0,SW,16.1,-,N/A,,Clear,220,2013-05-14 19:54:00
3:54 PM,87.1,59.0,39,29.77,10.0,SSW,16.1,-,N/A,,Clear,210,2013-05-14 20:54:00
4:54 PM,87.1,57.9,37,29.76,10.0,SW,15.0,23.0,N/A,,Clear,230,2013-05-14 21:54:00
5:54 PM,86.0,55.9,36,29.74,10.0,SW,17.3,25.3,N/A,,Clear,220,2013-05-14 22:54:00
6:54 PM,84.9,55.9,37,29.73,10.0,SW,13.8,-,N/A,,Clear,230,2013-05-14 23:54:00
7:54 PM,82.0,55.0,39,29.73,10.0,SW,12.7,-,N/A,,Clear,220,2013-05-15 00:54:00
8:54 PM,80.1,54.0,40,29.74,10.0,SW,11.5,-,N/A,,Clear,230,2013-05-15 01:54:00
9:54 PM,79.0,54.0,42,29.77,10.0,SW,15.0,-,N/A,,Clear,230,2013-05-15 02:54:00
10:54 PM,78.1,54.0,43,29.78,10.0,SW,16.1,24.2,N/A,,Clear,230,2013-05-15 03:54:00
11:54 PM,77.0,54.0,45,29.79,10.0,WSW,17.3,29.9,N/A,,Clear,240,2013-05-15 04:54:00